Key Largo, Florida Weather Center

Moon Phase Calendar



Online Cameras

 


      

Current Conditions in Key Largo
7/30/2021 2:56:47 PM

89°F
Feels Like 97
Clouds
Humidity
61%
Pressure
30.03"
Wind
2 mph (ESE)
Dew Point
74°F
UV Index
8/10 (Very High)
Visibility
6 mi

Hourly Forecast

Date & Time Fri, Jul 30
2:00 PM
Fri, Jul 30
3:00 PM
Fri, Jul 30
4:00 PM
Fri, Jul 30
5:00 PM
Fri, Jul 30
6:00 PM
Fri, Jul 30
7:00 PM
Fri, Jul 30
8:00 PM
Fri, Jul 30
9:00 PM
Fri, Jul 30
10:00 PM
Fri, Jul 30
11:00 PM
Sat, Jul 31
12:00 AM
Sat, Jul 31
1:00 AM
Sat, Jul 31
2:00 AM
Sat, Jul 31
3:00 AM
Sat, Jul 31
4:00 AM
Sat, Jul 31
5:00 AM
Sat, Jul 31
6:00 AM
Sat, Jul 31
7:00 AM
Sat, Jul 31
8:00 AM
Sat, Jul 31
9:00 AM
Sat, Jul 31
10:00 AM
Sat, Jul 31
11:00 AM
Sat, Jul 31
12:00 PM
Sat, Jul 31
1:00 PM
Sat, Jul 31
2:00 PM
Sat, Jul 31
3:00 PM
Sat, Jul 31
4:00 PM
Sat, Jul 31
5:00 PM
Sat, Jul 31
6:00 PM
Sat, Jul 31
7:00 PM
Sat, Jul 31
8:00 PM
Sat, Jul 31
9:00 PM
Sat, Jul 31
10:00 PM
Sat, Jul 31
11:00 PM
Sun, Aug 1
12:00 AM
Sun, Aug 1
1:00 AM
Sun, Aug 1
2:00 AM
Sun, Aug 1
3:00 AM
Sun, Aug 1
4:00 AM
Sun, Aug 1
5:00 AM
Sun, Aug 1
6:00 AM
Sun, Aug 1
7:00 AM
Sun, Aug 1
8:00 AM
Sun, Aug 1
9:00 AM
Sun, Aug 1
10:00 AM
Sun, Aug 1
11:00 AM
Sun, Aug 1
12:00 PM
Sun, Aug 1
1:00 PM
Condition
Rain

Clouds

Clouds

Clouds

Clouds

Clouds

Clouds

Clouds

Clouds

Clouds

Clouds

Clouds

Clouds

Clouds

Clouds

Clouds

Clouds

Clouds

Clouds

Clouds

Clouds

Clouds

Clouds

Clouds

Clouds

Clear

Clear

Clear

Clear

Clear

Clear

Clear

Clear

Clear

Clear

Clear

Clear

Clouds

Clouds

Rain

Clouds

Clear

Clouds

Clouds

Clouds

Clouds

Rain

Rain
Temperature 88°F89°F88°F88°F87°F87°F86°F85°F85°F85°F85°F85°F85°F85°F85°F85°F84°F84°F85°F85°F85°F86°F86°F86°F87°F87°F87°F86°F86°F86°F85°F85°F85°F85°F85°F85°F85°F84°F84°F84°F84°F84°F85°F85°F85°F86°F86°F86°F
Feels Like 97°F97°F97°F96°F95°F95°F93°F93°F93°F93°F93°F92°F92°F92°F92°F91°F91°F91°F92°F92°F93°F93°F94°F95°F94°F94°F93°F93°F93°F94°F93°F93°F93°F92°F92°F92°F92°F92°F91°F91°F91°F91°F92°F93°F94°F95°F95°F95°F
Cloudiness 44%41%42%44%53%63%74%77%44%32%26%23%30%46%34%35%29%25%31%29%20%18%16%17%17%8%9%9%9%8%8%5%5%6%6%6%9%11%11%11%11%10%18%17%12%11%12%15%
Visibility 6 mi6 mi6 mi6 mi6 mi6 mi6 mi6 mi6 mi6 mi6 mi6 mi6 mi6 mi6 mi6 mi6 mi6 mi6 mi6 mi6 mi6 mi6 mi6 mi6 mi6 mi6 mi6 mi6 mi6 mi6 mi6 mi6 mi6 mi6 mi6 mi6 mi6 mi6 mi6 mi6 mi6 mi6 mi6 mi6 mi6 mi6 mi6 mi
Precipitation 88%34%32%27%20%16%16%2%2%0%0%0%0%2%1%7%5%5%1%0%0%0%0%0%0%6%10%10%10%2%3%1%1%1%1%1%4%17%25%29%29%29%29%2%13%16%21%40%
Humidity 63%61%62%63%64%66%68%69%70%71%71%70%69%69%69%69%70%69%68%67%67%67%67%67%65%64%63%64%65%68%70%70%69%69%69%71%71%71%71%72%73%72%71%70%70%70%69%68%
Dew Point 74°F74°F74°F74°F74°F74°F74°F74°F74°F74°F74°F74°F74°F73°F73°F73°F73°F73°F73°F73°F73°F74°F74°F74°F74°F73°F72°F73°F73°F74°F74°F74°F74°F74°F74°F74°F74°F74°F74°F74°F74°F74°F74°F74°F74°F75°F75°F75°F
Pressure 30.03"30.03"30.03"30.03"30.03"30.03"30.03"30.06"30.06"30.06"30.06"30.06"30.06"30.06"30.03"30.06"30.06"30.06"30.06"30.06"30.09"30.09"30.09"30.09"30.09"30.06"30.06"30.03"30.03"30.03"30.06"30.06"30.06"30.06"30.06"30.06"30.06"30.03"30.03"30.03"30.03"30.03"30.06"30.06"30.06"30.09"30.09"30.09"
Wind Speed 8.5 mph8.5 mph7.7 mph7 mph7.7 mph8.4 mph8.7 mph8.5 mph8 mph8 mph8.2 mph8.7 mph9.3 mph9.6 mph10.2 mph9.8 mph9.5 mph9.3 mph9.2 mph9.5 mph9.2 mph9.2 mph9.2 mph9.6 mph9.6 mph8.8 mph8.5 mph8.9 mph9.2 mph9.2 mph9.1 mph10 mph11.4 mph11.2 mph8.2 mph10 mph8.9 mph7.6 mph7 mph7 mph8.5 mph9.4 mph10.5 mph10.1 mph9.6 mph9.4 mph9.9 mph9.6 mph
Wind
Direction
155°
SSE
150°
SSE
149°
SSE
152°
SSE
154°
SSE
155°
SSE
152°
SSE
152°
SSE
151°
SSE
144°
SE
144°
SE
143°
SE
141°
SE
140°
SE
143°
SE
147°
SSE
145°
SE
143°
SE
140°
SE
141°
SE
140°
SE
139°
SE
137°
SE
134°
SE
127°
SE
121°
ESE
118°
ESE
116°
ESE
117°
ESE
122°
ESE
128°
SE
130°
SE
129°
SE
128°
SE
127°
SE
130°
SE
133°
SE
136°
SE
130°
SE
122°
ESE
127°
SE
132°
SE
134°
SE
133°
SE
134°
SE
138°
SE
144°
SE
151°
SSE

Daily Forecast

Date High Low Precip. Humidity
Today
Jul 30

Rain
89 °F
84 °F
88%
64%
Saturday
Jul 31

Clouds
87 °F
84 °F
10%
67%
Sunday
Aug 1

Rain
86 °F
84 °F
78%
68%
Monday
Aug 2

Rain
86 °F
85 °F
61%
68%
Tuesday
Aug 3

Rain
86 °F
84 °F
75%
68%
Wednesday
Aug 4

Rain
85 °F
84 °F
94%
69%
Thursday
Aug 5

Rain
86 °F
84 °F
72%
68%
Friday
Aug 6

Rain
86 °F
82 °F
77%
69%
Saturday
Aug 7

Rain
85 °F
84 °F
96%
70%
Sunday
Aug 8

Rain
85 °F
84 °F
97%
67%
Monday
Aug 9

Rain
84 °F
79 °F
100%
77%
Tuesday
Aug 10

Rain
86 °F
84 °F
77%
69%
Wednesday
Aug 11

Rain
86 °F
84 °F
73%
68%
Thursday
Aug 12

Rain
87 °F
84 °F
96%
70%
Friday
Aug 13

Rain
87 °F
85 °F
53%
71%
Saturday
Aug 14

Rain
86 °F
84 °F
37%
67%

Temperature 8-14 Day Outlook



Precipitation 8-14 Day Outlook




Quick Links
Key Largo, Florida News
Key Largo, Florida Photos
Key Largo, Florida Videos




About Us
Contact Us
Site Map
Search Site
Advertise With Us
   
KeyLargo.CoastalTown.com
THE KEY LARGO, FLORIDA WEBSITE

Copyright 2021, Coastal Town
Privacy    |    Legal